Find Starlink 5819

NORAD ID: 55780 Int'l Des: 2023-028 Owner: SPXS Country: US Constellation: starlink operational
LEOCIRCULAR

Live Position

Loading 3D Globe...

About Starlink 5819

Description loading...

Upcoming Passes

Passes for default location (London). Set your location on the main map for personalized predictions.

Altitude History

Loading altitude history...

Two-Line Element Set

1 55780U 23028AR 26133.08853325 .00000790 00000-0 73990-4 0 9997
2 55780 70.0004 61.9175 0003150 270.2007 89.8791 14.98314473176183
Epoch: May 13, 2026 • Age: 13 hours

Current Status

Altitude 583.1 km
Velocity 7.57 km/s
Sub-Earth Point 57.28°N, 102.91°E
Launch Date Mar 3, 2023
Age 3.1 years
Type internet

Technical Details

Classification Payload
Mass 305.00 kg
Dry Mass 290.00 kg
Total Mass 305.00 kg
Length 0.20 m
Diameter 2.80 m
Span 9.00 m
Shape Box + pan
Manufacturer SPXS
Bus Type Starlink
Phase Status In Orbit
Owner/State SPXS/US

Most Searched